,,PressureMeas_1m,,PRMeasQMR101_1,,RHStat155_1m_1,,SRMeasQMS101R_1m,,TAStat155_1m_1,,GenWind_1,,GenWind_1,
2019-06-16, 07:00:06,VALID,918.424,VALID,0.0,VALID,99.643,VALID,82.869,VALID,20.049,VALID,85.0,VALID,0.0,
2019-06-16, 07:01:06,VALID,918.454,VALID,0.0,VALID,99.66,VALID,82.668,VALID,20.086,VALID,96.0,VALID,0.0,
2019-06-16, 07:02:06,VALID,918.458,VALID,0.0,VALID,99.661,VALID,82.591,VALID,20.16,VALID,113.0,VALID,0.0,
2019-06-16, 07:03:06,VALID,918.464,VALID,0.0,VALID,99.656,VALID,78.214,VALID,20.196,VALID,118.0,VALID,0.0,
2019-06-16, 07:04:06,VALID,918.483,VALID,0.0,VALID,99.635,VALID,83.364,VALID,20.185,VALID,121.0,VALID,0.0,
2019-06-16, 07:05:06,VALID,918.483,VALID,0.0,VALID,99.642,VALID,93.353,VALID,20.176,VALID,121.0,VALID,0.0,
2019-06-16, 07:06:06,VALID,918.487,VALID,0.0,VALID,99.645,VALID,96.193,VALID,20.188,VALID,121.0,VALID,0.0,
2019-06-16, 07:07:06,VALID,918.503,VALID,0.0,VALID,99.641,VALID,100.74,VALID,20.199,VALID,121.0,VALID,0.0,
2019-06-16, 07:08:06,VALID,918.509,VALID,0.0,VALID,99.658,VALID,103.753,VALID,20.287,VALID,121.0,VALID,0.0,
2019-06-16, 07:09:06,VALID,918.53,VALID,0.0,VALID,99.631,VALID,106.993,VALID,20.31,VALID,121.0,VALID,0.0,
2019-06-16, 07:10:06,VALID,918.557,VALID,0.0,VALID,99.646,VALID,110.422,VALID,20.423,VALID,105.0,VALID,0.0,
2019-06-16, 07:11:06,VALID,918.583,VALID,0.0,VALID,99.658,VALID,113.182,VALID,20.587,VALID,103.0,VALID,0.0,
2019-06-16, 07:12:06,VALID,918.601,VALID,0.0,VALID,99.66,VALID,115.846,VALID,20.719,VALID,103.0,VALID,0.0,
2019-06-16, 07:13:06,VALID,918.643,VALID,0.0,VALID,99.655,VALID,118.421,VALID,20.761,VALID,103.0,VALID,0.0,
2019-06-16, 07:14:06,VALID,918.659,VALID,0.0,VALID,99.652,VALID,121.378,VALID,20.829,VALID,103.0,VALID,0.0,
2019-06-16, 07:15:06,VALID,918.67,VALID,0.0,VALID,99.609,VALID,124.387,VALID,20.882,VALID,103.0,VALID,0.0,
2019-06-16, 07:16:06,VALID,918.691,VALID,0.0,VALID,99.549,VALID,126.632,VALID,20.845,VALID,105.0,VALID,0.0,
2019-06-16, 07:17:06,VALID,918.706,VALID,0.0,VALID,99.544,VALID,125.528,VALID,20.849,VALID,106.0,VALID,0.0,
2019-06-16, 07:18:06,VALID,918.739,VALID,0.0,VALID,99.459,VALID,123.864,VALID,20.812,VALID,134.0,VALID,0.0,
2019-06-16, 07:19:06,VALID,918.761,VALID,0.0,VALID,99.388,VALID,130.732,VALID,20.792,VALID,117.0,VALID,0.0,
2019-06-16, 07:20:06,VALID,918.814,VALID,0.0,VALID,99.119,VALID,143.882,VALID,20.603,VALID,116.0,VALID,0.0,
2019-06-16, 07:21:06,VALID,918.843,VALID,0.0,VALID,98.914,VALID,145.381,VALID,20.498,VALID,117.0,VALID,0.0,
2019-06-16, 07:22:06,VALID,918.869,VALID,0.0,VALID,98.95,VALID,146.058,VALID,20.584,VALID,122.0,VALID,0.0,
2019-06-16, 07:23:06,VALID,918.906,VALID,0.0,VALID,98.945,VALID,148.315,VALID,20.664,VALID,113.0,VALID,0.0,
2019-06-16, 07:24:06,VALID,918.931,VALID,0.0,VALID,98.863,VALID,152.455,VALID,20.753,VALID,109.0,VALID,0.0,
2019-06-16, 07:25:06,VALID,918.934,VALID,0.0,VALID,98.757,VALID,156.879,VALID,20.873,VALID,100.0,VALID,0.0,
2019-06-16, 07:26:06,VALID,918.925,VALID,0.0,VALID,98.314,VALID,158.584,VALID,20.934,VALID,95.0,VALID,0.0,
2019-06-16, 07:27:06,VALID,918.939,VALID,0.0,VALID,97.795,VALID,160.707,VALID,21.148,VALID,76.0,VALID,0.0,
2019-06-16, 07:28:06,VALID,918.946,VALID,0.0,VALID,97.165,VALID,162.547,VALID,21.355,VALID,65.0,VALID,0.0,
2019-06-16, 07:29:06,VALID,918.947,VALID,0.0,VALID,95.232,VALID,164.095,VALID,21.414,VALID,65.0,VALID,0.0,
2019-06-16, 07:30:06,VALID,918.966,VALID,0.0,VALID,94.793,VALID,165.935,VALID,21.564,VALID,63.0,VALID,0.0,
2019-06-16, 07:31:06,VALID,918.984,VALID,0.0,VALID,94.54,VALID,168.053,VALID,21.713,VALID,63.0,VALID,0.0,
2019-06-16, 07:32:06,VALID,918.993,VALID,0.0,VALID,93.589,VALID,170.022,VALID,21.881,VALID,63.0,VALID,0.0,
2019-06-16, 07:33:06,VALID,918.98,VALID,0.0,VALID,91.96,VALID,176.933,VALID,22.061,VALID,63.0,VALID,0.0,
2019-06-16, 07:34:06,VALID,918.976,VALID,0.0,VALID,88.985,VALID,183.158,VALID,22.183,VALID,63.0,VALID,0.0,
2019-06-16, 07:35:06,VALID,918.973,VALID,0.0,VALID,90.139,VALID,186.089,VALID,22.305,VALID,63.0,VALID,0.0,
2019-06-16, 07:36:06,VALID,918.976,VALID,0.0,VALID,90.358,VALID,188.362,VALID,22.547,VALID,56.0,VALID,0.0,
2019-06-16, 07:37:06,VALID,918.989,VALID,0.0,VALID,88.777,VALID,192.557,VALID,22.745,VALID,53.0,VALID,0.0,
2019-06-16, 07:38:06,VALID,918.998,VALID,0.0,VALID,86.892,VALID,196.163,VALID,22.792,VALID,53.0,VALID,0.0,
2019-06-16, 07:39:06,VALID,919.012,VALID,0.0,VALID,87.614,VALID,197.972,VALID,22.736,VALID,36.0,VALID,0.0,
2019-06-16, 07:40:06,VALID,919.02,VALID,0.0,VALID,87.505,VALID,200.326,VALID,22.737,VALID,20.0,VALID,0.0,
2019-06-16, 07:41:06,VALID,919.043,VALID,0.0,VALID,87.965,VALID,201.746,VALID,22.713,VALID,16.0,VALID,0.0,
2019-06-16, 07:42:06,VALID,919.066,VALID,0.0,VALID,88.295,VALID,205.988,VALID,22.611,VALID,12.0,VALID,0.0,
2019-06-16, 07:43:06,VALID,919.094,VALID,0.0,VALID,88.753,VALID,210.36,VALID,22.492,VALID,9.0,VALID,0.0,
2019-06-16, 07:44:06,VALID,919.098,VALID,0.0,VALID,89.588,VALID,214.838,VALID,22.374,VALID,1.0,VALID,0.0,
2019-06-16, 07:45:06,VALID,919.113,VALID,0.0,VALID,89.93,VALID,219.701,VALID,22.338,VALID,345.0,VALID,0.0,
2019-06-16, 07:46:06,VALID,919.137,VALID,0.0,VALID,90.467,VALID,222.68,VALID,22.427,VALID,343.0,VALID,0.0,
2019-06-16, 07:47:06,VALID,919.145,VALID,0.0,VALID,90.537,VALID,226.515,VALID,22.532,VALID,353.0,VALID,0.0,
2019-06-16, 07:48:06,VALID,919.164,VALID,0.0,VALID,89.243,VALID,231.71,VALID,22.603,VALID,354.0,VALID,0.0,
2019-06-16, 07:49:06,VALID,919.156,VALID,0.0,VALID,88.223,VALID,239.125,VALID,22.625,VALID,355.0,VALID,0.0,
2019-06-16, 07:50:06,VALID,919.18,VALID,0.0,VALID,88.092,VALID,244.202,VALID,22.632,VALID,356.0,VALID,0.0,
2019-06-16, 07:51:06,VALID,919.181,VALID,0.0,VALID,86.743,VALID,248.05,VALID,22.562,VALID,2.0,VALID,0.0,
2019-06-16, 07:52:06,VALID,919.188,VALID,0.0,VALID,87.565,VALID,251.867,VALID,22.469,VALID,353.0,VALID,0.0,
2019-06-16, 07:53:06,VALID,919.21,VALID,0.0,VALID,87.994,VALID,255.719,VALID,22.494,VALID,360.0,VALID,0.0,
2019-06-16, 07:54:06,VALID,919.216,VALID,0.0,VALID,87.111,VALID,259.442,VALID,22.546,VALID,1.0,VALID,0.0,
2019-06-16, 07:55:06,VALID,919.217,VALID,0.0,VALID,87.433,VALID,261.989,VALID,22.661,VALID,6.0,VALID,0.0,
2019-06-16, 07:56:06,VALID,919.213,VALID,0.0,VALID,88.81,VALID,265.23,VALID,22.85,VALID,360.0,VALID,0.0,
2019-06-16, 07:57:06,VALID,919.222,VALID,0.0,VALID,88.589,VALID,267.616,VALID,23.054,VALID,320.0,VALID,0.0,
2019-06-16, 07:58:06,VALID,919.227,VALID,0.0,VALID,87.481,VALID,271.048,VALID,23.134,VALID,312.0,VALID,0.0,
2019-06-16, 07:59:06,VALID,919.245,VALID,0.0,VALID,87.961,VALID,271.912,VALID,23.126,VALID,318.0,VALID,0.0,
2019-06-16, 08:00:06,VALID,919.255,VALID,0.0,VALID,87.873,VALID,275.287,VALID,23.172,VALID,332.0,VALID,0.0,
2019-06-16, 08:01:06,VALID,919.272,VALID,0.0,VALID,87.705,VALID,280.255,VALID,23.349,VALID,311.0,VALID,0.0,
2019-06-16, 08:02:06,VALID,919.267,VALID,0.0,VALID,85.771,VALID,283.75,VALID,23.413,VALID,353.0,VALID,0.0,
2019-06-16, 08:03:06,VALID,919.253,VALID,0.0,VALID,87.421,VALID,287.128,VALID,23.41,VALID,338.0,VALID,0.0,
2019-06-16, 08:04:06,VALID,919.236,VALID,0.0,VALID,85.566,VALID,293.026,VALID,23.429,VALID,358.0,VALID,0.0,
2019-06-16, 08:05:06,VALID,919.232,VALID,0.0,VALID,85.473,VALID,295.023,VALID,23.384,VALID,2.0,VALID,0.0,
2019-06-16, 08:06:06,VALID,919.221,VALID,0.0,VALID,86.503,VALID,296.893,VALID,23.432,VALID,351.0,VALID,0.0,
2019-06-16, 08:07:06,VALID,919.184,VALID,0.0,VALID,84.529,VALID,299.927,VALID,23.58,VALID,344.0,VALID,0.0,
2019-06-16, 08:08:06,VALID,919.182,VALID,0.0,VALID,83.463,VALID,303.793,VALID,23.573,VALID,347.0,VALID,0.0,
2019-06-16, 08:09:06,VALID,919.168,VALID,0.0,VALID,83.327,VALID,307.592,VALID,23.527,VALID,20.0,VALID,0.0,
2019-06-16, 08:10:06,VALID,919.159,VALID,0.0,VALID,84.341,VALID,308.873,VALID,23.423,VALID,10.0,VALID,0.0,
2019-06-16, 08:11:06,VALID,919.146,VALID,0.0,VALID,86.103,VALID,312.501,VALID,23.273,VALID,349.0,VALID,0.0,
2019-06-16, 08:12:06,VALID,919.158,VALID,0.0,VALID,85.128,VALID,317.383,VALID,23.31,VALID,2.0,VALID,0.0,
2019-06-16, 08:13:06,VALID,919.155,VALID,0.0,VALID,85.421,VALID,320.454,VALID,23.294,VALID,358.0,VALID,0.0,
2019-06-16, 08:14:06,VALID,919.186,VALID,0.0,VALID,85.349,VALID,323.147,VALID,23.266,VALID,333.0,VALID,0.0,
2019-06-16, 08:15:06,VALID,919.209,VALID,0.0,VALID,84.337,VALID,329.532,VALID,23.35,VALID,353.0,VALID,0.0,
2019-06-16, 08:16:06,VALID,919.226,VALID,0.0,VALID,84.318,VALID,334.304,VALID,23.328,VALID,336.0,VALID,0.0,
2019-06-16, 08:17:06,VALID,919.255,VALID,0.0,VALID,84.203,VALID,337.352,VALID,23.427,VALID,337.0,VALID,0.0,
2019-06-16, 08:18:06,VALID,919.271,VALID,0.0,VALID,85.664,VALID,342.181,VALID,23.665,VALID,329.0,VALID,0.0,
2019-06-16, 08:19:06,VALID,919.315,VALID,0.0,VALID,84.456,VALID,345.997,VALID,23.806,VALID,356.0,VALID,0.0,
2019-06-16, 08:20:06,VALID,919.344,VALID,0.0,VALID,83.94,VALID,351.035,VALID,24.011,VALID,17.0,VALID,0.0,
2019-06-16, 08:21:06,VALID,919.381,VALID,0.0,VALID,84.634,VALID,355.598,VALID,24.233,VALID,353.0,VALID,0.0,
2019-06-16, 08:22:06,VALID,919.383,VALID,0.0,VALID,82.328,VALID,359.377,VALID,24.478,VALID,333.0,VALID,0.0,
2019-06-16, 08:23:06,VALID,919.391,VALID,0.0,VALID,80.608,VALID,362.943,VALID,24.629,VALID,328.0,VALID,0.0,
2019-06-16, 08:24:06,VALID,919.419,VALID,0.0,VALID,78.721,VALID,364.793,VALID,24.657,VALID,323.0,VALID,0.0,
2019-06-16, 08:25:06,VALID,919.428,VALID,0.0,VALID,79.05,VALID,357.477,VALID,24.667,VALID,343.0,VALID,0.0,
2019-06-16, 08:26:06,VALID,919.44,VALID,0.0,VALID,79.68,VALID,366.66,VALID,24.619,VALID,5.0,VALID,0.0,
2019-06-16, 08:27:06,VALID,919.469,VALID,0.0,VALID,80.331,VALID,361.342,VALID,24.471,VALID,7.0,VALID,0.0,
2019-06-16, 08:28:06,VALID,919.483,VALID,0.0,VALID,80.405,VALID,374.045,VALID,24.483,VALID,359.0,VALID,0.0,
2019-06-16, 08:29:06,VALID,919.523,VALID,0.0,VALID,80.673,VALID,383.376,VALID,24.529,VALID,338.0,VALID,0.0,
2019-06-16, 08:30:06,VALID,919.553,VALID,0.0,VALID,80.674,VALID,367.342,VALID,24.592,VALID,308.0,VALID,0.0,
2019-06-16, 08:31:06,VALID,919.573,VALID,0.0,VALID,81.57,VALID,383.207,VALID,24.666,VALID,350.0,VALID,0.0,
2019-06-16, 08:32:06,VALID,919.596,VALID,0.0,VALID,81.403,VALID,388.386,VALID,24.697,VALID,357.0,VALID,0.0,
2019-06-16, 08:33:06,VALID,919.613,VALID,0.0,VALID,81.274,VALID,395.388,VALID,24.667,VALID,348.0,VALID,0.0,
2019-06-16, 08:34:06,VALID,919.613,VALID,0.0,VALID,82.55,VALID,398.577,VALID,24.679,VALID,322.0,VALID,0.0,
2019-06-16, 08:35:06,VALID,919.617,VALID,0.0,VALID,81.347,VALID,396.793,VALID,24.756,INVALID,360.0,VALID,0.0,
2019-06-16, 08:36:06,VALID,919.624,VALID,0.0,VALID,79.21,VALID,393.676,VALID,24.771,INVALID,360.0,VALID,0.0,
2019-06-16, 08:37:06,VALID,919.61,VALID,0.0,VALID,79.854,VALID,404.865,VALID,24.762,VALID,337.0,VALID,0.0,
2019-06-16, 08:38:06,VALID,919.603,VALID,0.0,VALID,80.658,VALID,406.793,VALID,24.921,VALID,7.0,VALID,0.0,
2019-06-16, 08:39:06,VALID,919.611,VALID,0.0,VALID,78.043,VALID,412.55,VALID,25.065,VALID,335.0,VALID,0.0,
2019-06-16, 08:40:06,VALID,919.628,VALID,0.0,VALID,77.987,VALID,415.789,VALID,25.287,INVALID,360.0,VALID,0.0,
2019-06-16, 08:41:06,VALID,919.64,VALID,0.0,VALID,76.749,VALID,421.217,VALID,25.405,INVALID,360.0,VALID,0.0,
2019-06-16, 08:42:06,VALID,919.671,VALID,0.0,VALID,77.619,VALID,422.752,VALID,25.315,INVALID,360.0,VALID,0.0,
2019-06-16, 08:43:06,VALID,919.686,VALID,0.0,VALID,76.96,VALID,425.173,VALID,25.382,INVALID,360.0,VALID,0.0,
2019-06-16, 08:44:06,VALID,919.698,VALID,0.0,VALID,76.409,VALID,427.841,VALID,25.481,VALID,322.0,VALID,0.0,
2019-06-16, 08:45:06,VALID,919.737,VALID,0.0,VALID,76.212,VALID,432.009,VALID,25.444,VALID,319.0,VALID,0.0,
2019-06-16, 08:46:06,VALID,919.751,VALID,0.0,VALID,76.686,VALID,437.84,VALID,25.323,INVALID,360.0,VALID,0.0,
2019-06-16, 08:47:06,VALID,919.758,VALID,0.0,VALID,77.483,VALID,443.238,VALID,25.367,INVALID,360.0,VALID,0.0,
2019-06-16, 08:48:06,VALID,919.773,VALID,0.0,VALID,77.134,VALID,444.709,VALID,25.301,VALID,268.0,VALID,0.0,
2019-06-16, 08:49:06,VALID,919.767,VALID,0.0,VALID,78.159,VALID,448.004,VALID,25.012,VALID,321.0,VALID,0.0,
2019-06-16, 08:50:06,VALID,919.774,VALID,0.0,VALID,78.734,VALID,453.825,VALID,24.847,VALID,319.0,VALID,0.0,
2019-06-16, 08:51:06,VALID,919.779,VALID,0.0,VALID,79.068,VALID,460.2,VALID,24.742,VALID,329.0,VALID,0.0,
2019-06-16, 08:52:06,VALID,919.796,VALID,0.0,VALID,78.45,VALID,465.445,VALID,24.669,VALID,293.0,VALID,0.0,
2019-06-16, 08:53:06,VALID,919.812,VALID,0.0,VALID,79.559,VALID,470.426,VALID,24.498,VALID,321.0,VALID,0.0,
2019-06-16, 08:54:06,VALID,919.814,VALID,0.0,VALID,79.651,VALID,475.762,VALID,24.46,VALID,9.0,VALID,0.0,
2019-06-16, 08:55:06,VALID,919.829,VALID,0.0,VALID,79.811,VALID,481.009,VALID,24.665,VALID,318.0,VALID,0.0,
2019-06-16, 08:56:06,VALID,919.859,VALID,0.0,VALID,79.951,VALID,462.708,VALID,24.756,VALID,292.0,VALID,0.0,
2019-06-16, 08:57:06,VALID,919.878,VALID,0.0,VALID,80.295,VALID,423.426,VALID,24.693,VALID,335.0,VALID,0.0,
2019-06-16, 08:58:06,VALID,919.908,VALID,0.0,VALID,80.142,VALID,453.435,VALID,24.761,VALID,349.0,VALID,0.0,
2019-06-16, 08:59:06,VALID,919.903,VALID,0.0,VALID,78.501,VALID,476.939,VALID,24.849,VALID,357.0,VALID,0.0,
2019-06-16, 09:00:06,VALID,919.936,VALID,0.0,VALID,78.645,VALID,503.6,VALID,24.939,VALID,331.0,VALID,0.0,
2019-06-16, 09:01:06,VALID,919.932,VALID,0.0,VALID,79.031,VALID,504.07,VALID,24.971,VALID,294.0,VALID,0.0,
2019-06-16, 09:02:06,VALID,919.956,VALID,0.0,VALID,77.761,VALID,507.657,VALID,24.936,VALID,346.0,VALID,0.0,
2019-06-16, 09:03:06,VALID,919.946,VALID,0.0,VALID,78.34,VALID,500.175,VALID,24.931,VALID,2.0,VALID,0.0,
2019-06-16, 09:04:06,VALID,919.949,VALID,0.0,VALID,78.308,VALID,428.452,VALID,25.051,VALID,324.0,VALID,0.0,
2019-06-16, 09:05:06,VALID,919.946,VALID,0.0,VALID,78.488,VALID,258.117,VALID,25.167,VALID,349.0,VALID,0.0,
2019-06-16, 09:06:06,VALID,919.94,VALID,0.0,VALID,77.192,VALID,455.386,VALID,25.088,VALID,1.0,VALID,0.0,
2019-06-16, 09:07:06,VALID,919.93,VALID,0.0,VALID,78.606,VALID,471.797,VALID,24.981,VALID,2.0,VALID,0.0,
2019-06-16, 09:08:06,VALID,919.923,VALID,0.0,VALID,78.606,VALID,449.347,VALID,25.207,VALID,340.0,VALID,0.0,
2019-06-16, 09:09:06,VALID,919.926,VALID,0.0,VALID,76.566,VALID,500.233,VALID,25.342,VALID,319.0,VALID,0.0,
2019-06-16, 09:10:06,VALID,919.925,VALID,0.0,VALID,75.83,VALID,466.734,VALID,25.202,VALID,287.0,VALID,0.0,
2019-06-16, 09:11:06,VALID,919.94,VALID,0.0,VALID,75.899,VALID,471.509,VALID,24.74,VALID,319.0,VALID,0.0,
2019-06-16, 09:12:06,VALID,919.949,VALID,0.0,VALID,78.299,VALID,486.749,VALID,24.577,VALID,276.0,VALID,0.0,
2019-06-16, 09:13:06,VALID,919.952,VALID,0.0,VALID,78.447,VALID,495.029,VALID,24.685,VALID,273.0,VALID,0.0,
2019-06-16, 09:14:06,VALID,919.948,VALID,0.0,VALID,79.463,VALID,482.79,VALID,24.797,VALID,7.0,VALID,0.0,
2019-06-16, 09:15:06,VALID,919.946,VALID,0.0,VALID,78.792,VALID,486.4,VALID,25.028,VALID,19.0,VALID,0.0,
2019-06-16, 09:16:06,VALID,919.937,VALID,0.0,VALID,77.245,VALID,526.363,VALID,25.165,VALID,319.0,VALID,0.0,
2019-06-16, 09:17:06,VALID,919.948,VALID,0.0,VALID,75.498,VALID,551.674,VALID,25.181,VALID,335.0,VALID,0.0,
2019-06-16, 09:18:06,VALID,919.934,VALID,0.0,VALID,75.944,VALID,553.008,VALID,25.076,VALID,302.0,VALID,0.0,
2019-06-16, 09:19:06,VALID,919.954,VALID,0.0,VALID,76.556,VALID,568.193,VALID,25.033,VALID,19.0,VALID,0.0,
2019-06-16, 09:20:06,VALID,919.935,VALID,0.0,VALID,76.774,VALID,569.011,VALID,25.272,VALID,16.0,VALID,0.0,
2019-06-16, 09:21:06,VALID,919.952,VALID,0.0,VALID,75.684,VALID,572.908,VALID,25.541,VALID,20.0,VALID,0.0,
2019-06-16, 09:22:06,VALID,919.949,VALID,0.0,VALID,74.185,VALID,574.363,VALID,25.654,VALID,353.0,VALID,0.0,
2019-06-16, 09:23:06,VALID,919.956,VALID,0.0,VALID,74.556,VALID,574.828,VALID,25.575,VALID,347.0,VALID,0.0,
2019-06-16, 09:24:06,VALID,919.961,VALID,0.0,VALID,75.639,VALID,577.28,VALID,25.756,VALID,26.0,VALID,0.0,
2019-06-16, 09:25:06,VALID,919.952,VALID,0.0,VALID,75.367,VALID,520.11,VALID,25.875,VALID,350.0,VALID,0.0,
2019-06-16, 09:26:06,VALID,919.94,VALID,0.0,VALID,74.686,VALID,549.387,VALID,26.076,VALID,342.0,VALID,0.0,
2019-06-16, 09:27:06,VALID,919.937,VALID,0.0,VALID,74.084,VALID,544.456,VALID,26.298,VALID,5.0,VALID,0.0,
2019-06-16, 09:28:06,VALID,919.932,VALID,0.0,VALID,73.432,VALID,558.268,VALID,26.505,VALID,318.0,VALID,0.0,
2019-06-16, 09:29:06,VALID,919.928,VALID,0.0,VALID,72.958,VALID,575.948,VALID,26.432,VALID,291.0,VALID,0.0,
2019-06-16, 09:30:06,VALID,919.924,VALID,0.0,VALID,72.323,VALID,574.577,VALID,26.38,VALID,290.0,VALID,0.0,
2019-06-16, 09:31:06,VALID,919.908,VALID,0.0,VALID,72.552,VALID,569.272,VALID,26.379,VALID,9.0,VALID,0.0,
2019-06-16, 09:32:06,VALID,919.889,VALID,0.0,VALID,73.324,VALID,547.715,VALID,26.543,INVALID,360.0,VALID,0.0,
2019-06-16, 09:33:06,VALID,919.87,VALID,0.0,VALID,73.408,VALID,545.461,VALID,26.688,VALID,322.0,VALID,0.0,
2019-06-16, 09:34:06,VALID,919.868,VALID,0.0,VALID,72.599,VALID,544.687,VALID,26.545,VALID,327.0,VALID,0.0,
2019-06-16, 09:35:06,VALID,919.819,VALID,0.0,VALID,72.633,VALID,536.878,VALID,26.437,VALID,9.0,VALID,0.0,
2019-06-16, 09:36:06,VALID,919.799,VALID,0.0,VALID,72.114,VALID,570.638,VALID,26.06,VALID,360.0,VALID,0.0,
2019-06-16, 09:37:06,VALID,919.781,VALID,0.0,VALID,73.855,VALID,577.614,VALID,26.051,VALID,327.0,VALID,0.0,
2019-06-16, 09:38:06,VALID,919.774,VALID,0.0,VALID,73.191,VALID,591.428,VALID,26.114,VALID,49.0,VALID,0.0,
2019-06-16, 09:39:06,VALID,919.762,VALID,0.0,VALID,73.506,VALID,586.518,VALID,26.339,VALID,319.0,VALID,0.0,
2019-06-16, 09:40:06,VALID,919.758,VALID,0.0,VALID,71.394,VALID,606.307,VALID,26.248,VALID,304.0,VALID,0.0,
2019-06-16, 09:41:06,VALID,919.764,VALID,0.0,VALID,72.962,VALID,614.403,VALID,26.041,VALID,285.0,VALID,0.0,
2019-06-16, 09:42:06,VALID,919.759,VALID,0.0,VALID,75.471,VALID,622.734,VALID,25.996,VALID,302.0,VALID,0.0,
2019-06-16, 09:43:06,VALID,919.775,VALID,0.0,VALID,73.464,VALID,628.811,VALID,26.059,VALID,317.0,VALID,0.0,
2019-06-16, 09:44:06,VALID,919.746,VALID,0.0,VALID,73.077,VALID,633.623,VALID,26.249,VALID,311.0,VALID,0.0,
2019-06-16, 09:45:06,VALID,919.724,VALID,0.0,VALID,72.458,VALID,638.021,VALID,26.374,INVALID,360.0,VALID,0.0,
2019-06-16, 09:46:06,VALID,919.713,VALID,0.0,VALID,73.405,VALID,639.136,VALID,26.281,INVALID,360.0,VALID,0.0,
2019-06-16, 09:47:06,VALID,919.7,VALID,0.0,VALID,73.237,VALID,632.216,VALID,26.404,VALID,359.0,VALID,0.0,
2019-06-16, 09:48:06,VALID,919.696,VALID,0.0,VALID,72.779,VALID,603.35,VALID,26.604,INVALID,360.0,VALID,0.0,
2019-06-16, 09:49:06,VALID,919.681,VALID,0.0,VALID,72.695,VALID,582.136,VALID,26.532,INVALID,360.0,VALID,0.0,
2019-06-16, 09:50:06,VALID,919.69,VALID,0.0,VALID,74.627,VALID,622.098,VALID,26.123,INVALID,360.0,VALID,0.0,
2019-06-16, 09:51:06,VALID,919.678,VALID,0.0,VALID,75.982,VALID,639.338,VALID,25.734,INVALID,360.0,VALID,0.0,
2019-06-16, 09:52:06,VALID,919.677,VALID,0.0,VALID,77.186,VALID,649.412,VALID,25.446,INVALID,360.0,VALID,0.0,
2019-06-16, 09:53:06,VALID,919.663,VALID,0.0,VALID,75.61,VALID,656.849,VALID,25.213,INVALID,360.0,VALID,0.0,
2019-06-16, 09:54:06,VALID,919.652,VALID,0.0,VALID,75.425,VALID,642.598,VALID,24.956,INVALID,360.0,VALID,0.0,
2019-06-16, 09:55:06,VALID,919.645,VALID,0.0,VALID,77.005,VALID,655.908,VALID,24.929,INVALID,360.0,VALID,0.0,
2019-06-16, 09:56:06,VALID,919.629,VALID,0.0,VALID,77.299,VALID,676.206,VALID,25.03,INVALID,360.0,VALID,0.0,
2019-06-16, 09:57:06,VALID,919.612,VALID,0.0,VALID,77.177,VALID,676.658,VALID,25.257,VALID,329.0,VALID,0.0,
2019-06-16, 09:58:06,VALID,919.588,VALID,0.0,VALID,78.377,VALID,678.099,VALID,25.644,VALID,6.0,VALID,0.0,
2019-06-16, 09:59:06,VALID,919.588,VALID,0.0,VALID,78.097,VALID,684.861,VALID,26.071,VALID,16.0,VALID,0.0,
2019-06-16, 10:00:06,VALID,919.592,VALID,0.0,VALID,75.888,VALID,710.033,VALID,26.444,VALID,30.0,VALID,0.0,
2019-06-16, 10:01:06,VALID,919.597,VALID,0.0,VALID,74.478,VALID,640.031,VALID,26.739,VALID,19.0,VALID,0.0,
2019-06-16, 10:02:06,VALID,919.582,VALID,0.0,VALID,73.712,VALID,389.021,VALID,26.768,VALID,24.0,VALID,0.0,
2019-06-16, 10:03:06,VALID,919.58,VALID,0.0,VALID,74.129,VALID,692.204,VALID,26.572,VALID,9.0,VALID,0.0,
2019-06-16, 10:04:06,VALID,919.565,VALID,0.0,VALID,72.446,VALID,703.247,VALID,26.584,VALID,345.0,VALID,0.0,
2019-06-16, 10:05:06,VALID,919.578,VALID,0.0,VALID,71.349,VALID,711.829,VALID,26.491,VALID,300.0,VALID,0.0,
2019-06-16, 10:06:06,VALID,919.562,VALID,0.0,VALID,71.052,VALID,712.115,VALID,26.482,VALID,329.0,VALID,0.0,
2019-06-16, 10:07:06,VALID,919.56,VALID,0.0,VALID,72.432,VALID,721.864,VALID,26.708,VALID,348.0,VALID,0.0,
2019-06-16, 10:08:06,VALID,919.557,VALID,0.0,VALID,72.63,VALID,734.973,VALID,26.778,VALID,350.0,VALID,0.0,
2019-06-16, 10:09:06,VALID,919.548,VALID,0.0,VALID,71.156,VALID,715.589,VALID,26.64,VALID,355.0,VALID,0.0,
2019-06-16, 10:10:06,VALID,919.541,VALID,0.0,VALID,73.37,VALID,750.085,VALID,26.601,INVALID,360.0,VALID,0.0,
2019-06-16, 10:11:06,VALID,919.552,VALID,0.0,VALID,74.504,VALID,508.525,VALID,26.734,VALID,333.0,VALID,0.0,
2019-06-16, 10:12:06,VALID,919.556,VALID,0.0,VALID,71.834,VALID,264.054,VALID,26.843,VALID,24.0,VALID,0.0,
2019-06-16, 10:13:06,VALID,919.552,VALID,0.0,VALID,73.219,VALID,235.19,VALID,26.902,VALID,7.0,VALID,0.0,
2019-06-16, 10:14:06,VALID,919.537,VALID,0.0,VALID,71.863,VALID,761.428,VALID,26.736,VALID,356.0,VALID,0.0,
2019-06-16, 10:15:06,VALID,919.545,VALID,0.0,VALID,73.527,VALID,836.871,VALID,26.409,VALID,16.0,VALID,0.0,
2019-06-16, 10:16:06,VALID,919.558,VALID,0.0,VALID,74.73,VALID,491.879,VALID,26.413,VALID,324.0,VALID,0.0,
2019-06-16, 10:17:06,VALID,919.58,VALID,0.0,VALID,73.248,VALID,651.319,VALID,26.392,INVALID,360.0,VALID,0.0,
2019-06-16, 10:18:06,VALID,919.574,VALID,0.0,VALID,74.9,VALID,687.618,VALID,26.412,VALID,360.0,VALID,0.0,
2019-06-16, 10:19:06,VALID,919.57,VALID,0.0,VALID,76.369,VALID,800.401,VALID,26.629,VALID,357.0,VALID,0.0,
2019-06-16, 10:20:06,VALID,919.569,VALID,0.0,VALID,73.535,VALID,739.141,VALID,26.877,VALID,340.0,VALID,0.0,
2019-06-16, 10:21:06,VALID,919.552,VALID,0.0,VALID,72.628,VALID,758.479,VALID,26.908,VALID,302.0,VALID,0.0,
2019-06-16, 10:22:06,VALID,919.543,VALID,0.0,VALID,70.93,VALID,730.031,VALID,26.797,VALID,299.0,VALID,0.38,
2019-06-16, 10:23:06,VALID,919.53,VALID,0.0,VALID,70.917,VALID,697.585,VALID,26.375,VALID,278.0,VALID,1.035,
2019-06-16, 10:24:06,VALID,919.536,VALID,0.0,VALID,73.527,VALID,761.942,VALID,26.165,VALID,342.0,VALID,0.664,
2019-06-16, 10:25:06,VALID,919.536,VALID,0.0,VALID,74.179,VALID,431.545,VALID,26.157,INVALID,360.0,VALID,0.077,
2019-06-16, 10:26:06,VALID,919.558,VALID,0.0,VALID,74.493,VALID,215.558,VALID,26.309,VALID,339.0,VALID,0.0,
2019-06-16, 10:27:06,VALID,919.561,VALID,0.0,VALID,74.491,VALID,704.245,VALID,26.374,VALID,355.0,VALID,0.0,
2019-06-16, 10:28:06,VALID,919.585,VALID,0.0,VALID,74.121,VALID,780.561,VALID,26.436,VALID,4.0,VALID,0.0,
2019-06-16, 10:29:06,VALID,919.562,VALID,0.0,VALID,71.996,VALID,794.764,VALID,26.312,VALID,22.0,VALID,0.0,
2019-06-16, 10:30:06,VALID,919.559,VALID,0.0,VALID,74.108,VALID,786.358,VALID,26.082,INVALID,360.0,VALID,0.0,
2019-06-16, 10:31:06,VALID,919.548,VALID,0.0,VALID,74.9,VALID,222.885,VALID,26.116,INVALID,360.0,VALID,0.0,
2019-06-16, 10:32:06,VALID,919.52,VALID,0.0,VALID,75.069,VALID,207.493,VALID,26.068,VALID,23.0,VALID,0.0,
2019-06-16, 10:33:06,VALID,919.503,VALID,0.0,VALID,76.77,VALID,234.12,VALID,25.986,VALID,354.0,VALID,0.0,
2019-06-16, 10:34:07,VALID,919.499,VALID,0.0,VALID,76.334,VALID,701.973,VALID,25.93,VALID,29.0,VALID,1.055,
2019-06-16, 10:35:07,VALID,919.507,VALID,0.0,VALID,77.157,VALID,877.06,VALID,25.977,VALID,12.0,VALID,0.833,
2019-06-16, 10:36:07,VALID,919.51,VALID,0.0,VALID,78.226,VALID,501.103,VALID,26.281,VALID,302.0,VALID,0.639,
2019-06-16, 10:37:07,VALID,919.526,VALID,0.0,VALID,76.362,VALID,652.945,VALID,26.614,INVALID,360.0,VALID,0.025,
2019-06-16, 10:38:07,VALID,919.512,VALID,0.0,VALID,71.225,VALID,369.897,VALID,26.671,VALID,310.0,VALID,0.058,
2019-06-16, 10:39:07,VALID,919.51,VALID,0.0,VALID,73.618,VALID,330.424,VALID,26.639,VALID,13.0,VALID,0.007,